FW3834 Weather Reports


time (UTC)temp
F
wind
direction
speed
knots
gust
knots
rain 1hr
in
rain 24hr
in
rain mn
in
humidity
%
barometer
mb
20260502164033 60 86 0.9 1.7 0.00 0.00 0.00 63 1017.7
20260502163033 60 86 0.9 1.7 0.00 0.00 0.00 65 1017.6
20260502162053 58 84 0.9 1.7 0.00 0.00 0.00 65 1017.5
20260502161033 58 86 0.9 1.7 0.00 0.00 0.00 66 1017.6
20260502152033 58 70 0.9 1.7 0.00 0.00 0.00 66 1017.2
20260502151053 55 66 0.9 0.9 0.00 0.00 0.00 76 1016.9
20260502123033 50 0.0 0.0 0.00 0.00 0.00 85 1016.4
20260502122033 50 0.0 0.0 0.00 0.00 0.00 86 1016.2
20260502121033 51 0.0 0.0 0.00 0.00 0.00 86 1016.3
20260502115053 50 0.0 0.0 0.00 0.00 0.00 85 1016.3
20260502114033 50 0.0 0.0 0.00 0.00 0.00 86 1016.2
20260502113053 50 0.0 0.0 0.00 0.00 0.00 87 1016.2
20260502112033 50 0.0 0.0 0.00 0.00 0.00 85 1016.2
20260502111033 50 0.0 0.0 0.00 0.00 0.00 84 1016.1
20260502110034 50 0.0 0.0 0.00 0.00 0.00 86 1016.0
20260502105033 50 0.0 0.0 0.00 0.00 0.00 85 1016.1
20260502104033 50 0.0 0.0 0.00 0.00 0.00 87 1016.2
20260502103033 50 0.0 0.0 0.00 0.00 0.00 86 1016.2
20260502102033 50 0.0 0.0 0.00 0.00 0.00 86 1016.2
20260502101033 50 0.0 0.0 0.00 0.00 0.00 86 1016.2
20260502091033 51 0.0 0.0 0.00 0.00 0.00 87 1016.1
20260502071032 50 66 0.0 0.9 0.00 0.00 0.00 87 1015.9
20260502070033 50 66 0.0 0.9 0.00 0.00 0.00 88 1016.0
20260502065032 50 66 0.0 0.9 0.00 0.00 0.00 88 1016.0
20260502064032 50 66 0.9 0.9 0.00 0.00 0.00 88 1015.9
20260502063032 50 66 0.0 0.9 0.00 0.00 0.00 87 1015.7
20260502062032 50 66 0.0 0.9 0.00 0.00 0.00 87 1015.7
20260502061032 50 0.0 0.0 0.00 0.00 0.00 87 1015.8
20260502060032 51 66 0.0 0.9 0.00 0.00 0.00 87 1015.7
20260502055032 51 66 0.0 0.9 0.00 0.00 0.00 87 1015.7
20260502054032 51 66 0.0 0.9 0.00 0.00 0.00 86 1015.8
20260502053032 51 66 0.9 0.9 0.00 0.00 0.00 87 1015.8
20260502052032 51 66 0.9 0.9 0.00 0.00 0.00 86 1015.7
20260502051052 51 67 0.9 0.9 0.00 0.00 0.00 85 1015.8
20260502050032 51 67 0.0 0.9 0.00 0.00 0.00 86 1015.7
20260502045032 51 67 0.9 0.9 0.00 0.00 0.00 86 1015.6
20260502044032 51 67 0.9 0.9 0.00 0.00 0.00 85 1015.6
20260502043032 52 67 0.9 0.9 0.00 0.00 0.00 88 1015.6
20260502042032 52 67 0.9 0.9 0.00 0.00 0.00 84 1015.6
20260502041033 52 70 0.9 0.9 0.00 0.00 0.00 83 1015.6
20260502040032 53 71 0.0 0.9 0.00 0.00 0.00 84 1015.5
20260502035032 53 0.0 0.0 0.00 0.00 0.00 86 1015.4
20260502034033 54 0.0 0.0 0.00 0.00 0.00 84 1015.4
20260502033032 54 0.0 0.0 0.00 0.00 0.00 86 1015.2
20260502032032 55 71 0.0 0.9 0.00 0.00 0.00 83 1015.3
20260502031032 55 0.0 0.0 0.00 0.00 0.00 84 1015.1
20260502030032 56 0.0 0.0 0.00 0.00 0.00 82 1015.1
20260502025032 56 0.0 0.0 0.00 0.00 0.00 81 1015.1
20260502024032 56 0.0 0.0 0.00 0.00 0.00 81 1015.1
20260502023052 57 0.0 0.0 0.00 0.00 0.00 79 1015.0
20260502022032 57 71 0.0 0.9 0.00 0.00 0.00 77 1015.0
20260502021052 57 0.0 0.0 0.00 0.00 0.00 77 1015.0
20260502020032 58 0.0 0.0 0.00 0.00 0.00 77 1014.9
20260502015032 59 72 0.0 0.9 0.00 0.00 0.00 75 1014.9
20260502014032 59 68 0.0 0.9 0.00 0.00 0.00 72 1015.0
20260502013032 58 0.0 0.0 0.00 0.00 0.00 74 1015.1
20260502012052 58 73 0.0 0.9 0.00 0.00 0.00 76 1015.2
20260502011032 59 0.0 0.0 0.00 0.00 0.00 75 1015.2
20260502010052 59 83 0.0 1.7 0.00 0.00 0.00 72 1015.3
20260502005032 59 0.0 0.0 0.00 0.00 0.00 73 1015.3
20260502004032 59 0.0 0.0 0.00 0.00 0.00 71 1015.3
20260502003032 60 0.0 0.0 0.00 0.00 0.00 70 1015.3
20260502002032 60 0.0 0.0 0.00 0.00 0.00 71 1015.4
20260502001032 60 88 0.9 0.9 0.00 0.00 0.00 67 1015.4
20260502000032 61 87 0.9 1.7 0.00 0.00 0.00 67 1015.4
20260501235032 60 86 0.9 1.7 0.00 0.00 0.00 70 1015.4
20260501234032 60 86 0.0 0.9 0.00 0.00 0.00 72 1015.4
20260501233032 61 86 0.9 0.9 0.00 0.00 0.00 67 1015.4
20260501232052 61 86 0.0 1.7 0.00 0.00 0.00 70 1015.4
20260501231052 61 0.0 0.0 0.00 0.00 0.00 64 1015.6
20260501230032 61 85 0.0 0.9 0.00 0.00 0.00 70 1015.6
20260501225032 61 0.0 0.0 0.00 0.00 0.00 71 1015.7
20260501224052 61 85 0.0 0.9 0.00 0.00 0.00 67 1015.9
20260501223032 59 0.0 0.0 0.00 0.00 0.00 75 1015.9
20260501222032 59 0.0 0.0 0.00 0.00 0.00 75 1015.9
20260501221032 60 0.0 0.0 0.00 0.00 0.00 69 1016.0
20260501220032 60 85 0.0 0.9 0.00 0.00 0.00 70 1016.0
20260501215032 61 0.0 0.0 0.00 0.00 0.00 67 1016.1
20260501214032 60 85 0.0 0.9 0.00 0.00 0.00 71 1016.2
20260501213052 60 85 0.0 0.9 0.00 0.00 0.00 68 1016.2
20260501212052 60 85 0.0 0.9 0.00 0.00 0.00 70 1016.4
20260501211032 61 85 0.9 0.9 0.00 0.00 0.00 67 1016.3
20260501210032 62 0.0 0.0 0.00 0.00 0.00 69 1016.2
20260501205032 62 84 0.9 1.7 0.00 0.00 0.00 64 1016.2
20260501204032 62 84 0.9 0.9 0.00 0.00 0.00 65 1016.1
20260501203032 61 90 0.9 1.7 0.00 0.00 0.00 67 1016.2
20260501202032 62 88 1.7 4.3 0.00 0.00 0.00 67 1016.1
20260501201032 61 90 0.9 2.6 0.00 0.00 0.00 65 1016.2
20260501200032 61 88 0.9 1.7 0.00 0.00 0.00 66 1016.2
20260501195052 61 85 0.9 1.7 0.00 0.00 0.00 67 1016.3
20260501194033 61 86 1.7 2.6 0.00 0.00 0.00 67 1016.3
20260501193032 60 84 0.9 1.7 0.00 0.00 0.00 67 1016.5
20260501192032 60 88 0.9 1.7 0.00 0.00 0.00 68 1016.4
20260501191032 60 83 0.9 1.7 0.00 0.00 0.00 67 1016.3
20260501190032 60 90 1.7 1.7 0.00 0.00 0.00 67 1016.5
20260501185032 60 89 0.9 1.7 0.00 0.00 0.00 67 1016.4
20260501184032 61 89 0.9 1.7 0.00 0.00 0.00 67 1016.5
20260501183032 60 89 0.9 1.7 0.00 0.00 0.00 67 1016.5
20260501182032 60 88 0.9 1.7 0.00 0.00 0.00 67 1016.5
20260501181052 60 87 0.9 1.7 0.00 0.00 0.00 66 1016.6
20260501180052 59 85 1.7 2.6 0.00 0.00 0.00 68 1016.6